CZ-6A DEB, 61142

Orbit data source: Space-Track

CZ-6A DEB, 61142 is space debris in LEO originally from a launch on Tue, 06 Aug 2024 UTC launched from the Taiyaun Space Center, China (TSC). Debris objects in space refer to the collection of defunct objects orbiting the Earth. Examples of debris include non-operational satellites, rocket bodies, and fragments generated from explosions, collisions, or faulty payload assembly.

Loading next visibility...
Identifier
61142, 2024-140QL
Orbit
LEO
Country
Flag of CNCN / PRC
Related business
Manufacturer
SAST
Mission
Spacecraft
Bus & Motor
Unknown
Mass
Unknown
Launch date (UTC)
2024-08-06 (2 years ago)
Launch vehicle
Unknown
Launch site
Taiyaun Space Center, China (TSC)
Object type
Payload
Rocket body
Debris
Shape & HBR
Unknown shape, 0.1 m
Radar Cross Section
Small (<0.1 m²)

Expand to show TLE details & history
Last TLE update: 10 hours ago

TLE from 10 hours ago
0 CZ-6A DEB
1 61142U 24140QL  26130.11653785  .00000843  00000-0  18024-3 0  9996
2 61142  88.8356 261.9094 0108063  25.3937 335.2526 14.54208117 90909
Epoch: 2026-05-10T02:47Z
TLE epoch observation values (Epoch: 2026-05-10T02:47:48.870Z)
Latitude
-0.00002°
Longitude
-7.96846°
Altitude
645.59 km
Speed
7.572 km/s
True Right ascension
17h 27m 38s
True Declination
0° 00' 00"
Sunlit
Object was in full shadow at epoch
Visualization orbit readout
Latitude
Unknown
Longitude
Unknown
Altitude
Unknown
Speed
Unknown
Apparent Right ascension
Unknown
Apparent Declination
Unknown
Sunlit
N/A
Visualization observer readout
Local Sidereal Time
21:27:42
Azimuth
Unknown
Elevation
Unknown
Doppler factor
Unknown
Orbital elements
Apogee altitude
785.424 km
Perigee altitude
632.256 km
Semi-major axis
7,086.977 km
Eccentricity
0.01081
Inclination
88.8356°
RAAN
261.9094°
Arg. of periapsis
25.3937°
True anomaly
334.72779°
Mean anomaly
335.2526°
Eccentric anomaly
334.99084°
Mean motion
3.63791 °/min
Orbital period
98.96 mins
BSTAR
0.00018024
Loading maneuver chart data...
Computing Atmospheric mass density...
Loading historical data...
Loading historical data...
Loading historical data...
Loading historical data...
Loading historical data...
Loading historical data...
Loading historical data...

Documentation

Showing up to 5 results
|